TimeEDT,TemperatureF,Dew PointF,Humidity,Sea Level PressureIn,VisibilityMPH,Wind Direction,Wind SpeedMPH,Gust SpeedMPH,PrecipitationIn,Events,Conditions,WindDirDegrees,DateUTC
12:52 AM,73.0,69.1,87,30.02,10.0,Calm,Calm,-,N/A,,Clear,0,2013-07-07 04:52:00
1:52 AM,73.0,69.1,87,30.03,10.0,Calm,Calm,-,N/A,,Clear,0,2013-07-07 05:52:00
2:52 AM,73.0,69.1,87,30.02,10.0,Calm,Calm,-,N/A,,Clear,0,2013-07-07 06:52:00
3:52 AM,72.0,69.1,91,30.01,8.0,Calm,Calm,-,N/A,,Clear,0,2013-07-07 07:52:00
4:52 AM,71.1,68.0,90,30.01,8.0,Calm,Calm,-,N/A,,Clear,0,2013-07-07 08:52:00
5:22 AM,69.8,68.0,94,30.02,1.2,Calm,Calm,-,N/A,,Clear,0,2013-07-07 09:22:00
5:27 AM,71.6,68.0,88,30.02,3.0,Calm,Calm,-,N/A,,Clear,0,2013-07-07 09:27:00
5:52 AM,72.0,69.1,91,30.02,7.0,Calm,Calm,-,N/A,,Clear,0,2013-07-07 09:52:00
6:52 AM,75.9,71.1,85,30.03,10.0,Calm,Calm,-,N/A,,Clear,0,2013-07-07 10:52:00
7:52 AM,81.0,70.0,69,30.03,10.0,West,5.8,-,N/A,,Clear,270,2013-07-07 11:52:00
8:52 AM,84.0,69.1,61,30.02,10.0,West,5.8,-,N/A,,Clear,280,2013-07-07 12:52:00
9:52 AM,86.0,69.1,57,30.02,10.0,West,6.9,-,N/A,,Clear,280,2013-07-07 13:52:00
10:52 AM,89.1,70.0,53,30.01,10.0,WNW,10.4,-,N/A,,Clear,300,2013-07-07 14:52:00
11:52 AM,90.0,71.1,54,29.99,10.0,WSW,5.8,-,N/A,,Clear,250,2013-07-07 15:52:00
12:52 PM,91.9,71.1,50,29.99,10.0,West,11.5,16.1,N/A,,Partly Cloudy,270,2013-07-07 16:52:00
1:52 PM,93.0,71.1,49,29.98,10.0,WNW,8.1,-,N/A,,Clear,300,2013-07-07 17:52:00
2:52 PM,89.1,72.0,57,29.95,10.0,NE,8.1,-,N/A,Thunderstorm,Mostly Cloudy,40,2013-07-07 18:52:00
3:50 PM,82.4,77.0,84,29.96,9.0,South,6.9,-,0.02,,Partly Cloudy,190,2013-07-07 19:50:00
3:52 PM,82.9,77.0,82,29.95,9.0,South,5.8,-,0.02,,Partly Cloudy,170,2013-07-07 19:52:00
4:03 PM,82.4,75.2,79,29.96,9.0,SSE,5.8,-,N/A,Thunderstorm,Partly Cloudy,160,2013-07-07 20:03:00
4:52 PM,81.0,75.9,85,29.96,6.0,WSW,4.6,-,0.01,Rain-Thunderstorm,Light Thunderstorms and Rain,240,2013-07-07 20:52:00
5:35 PM,78.8,73.4,83,29.96,2.0,WNW,6.9,-,0.06,Rain-Thunderstorm,Light Thunderstorms and Rain,300,2013-07-07 21:35:00
5:44 PM,78.8,73.4,83,29.95,10.0,Calm,Calm,-,0.06,Thunderstorm,Thunderstorm,0,2013-07-07 21:44:00
5:52 PM,79.0,75.0,88,29.94,10.0,SSW,4.6,-,0.06,,Mostly Cloudy,210,2013-07-07 21:52:00
6:52 PM,78.1,68.0,71,29.92,10.0,SSW,6.9,-,N/A,,Clear,210,2013-07-07 22:52:00
7:52 PM,75.9,69.1,79,29.93,10.0,Calm,Calm,-,N/A,,Clear,0,2013-07-07 23:52:00
8:52 PM,75.9,69.1,79,29.95,10.0,Calm,Calm,-,N/A,,Clear,0,2013-07-08 00:52:00
9:52 PM,75.0,69.1,82,29.96,10.0,SSW,3.5,-,N/A,,Clear,200,2013-07-08 01:52:00
10:52 PM,73.9,69.1,85,29.96,10.0,South,3.5,-,N/A,,Clear,190,2013-07-08 02:52:00
11:52 PM,73.9,70.0,87,29.95,10.0,South,3.5,-,N/A,,Clear,180,2013-07-08 03:52:00